Flag for Canada Weather past 2 weeks in Quispamsis, New Brunswick, Canada

Now
54 °F

Clear.


Feels Like: 54 °F
Forecast: 54 / 75 °F
Wind: 2 mph from Southwest

Location: Saint John

Current Time: Jul 22, 2014 at 4:45:40 AM

Latest Report: Jul 22, 2014 at 4:00 AM


Visibility: 15 mi

Pressure: 30.12 "Hg

Humidity: 94%

Dew point: 52 °F

Location of QuispamsisLocation

Historic Weather in Quispamsis — Graph

°F

Quispamsis temperature yesterday

Maximum temperature yesterday: 77 °F (at 2:00 PM)
Minimum temperature yesterday: 61 °F (at 10:00 PM)
Average temperature yesterday: 68 °F

Past Weeks' High & Low Weather Summary

 TemperatureHumidityPressure
High81 °F (Jul 19, 3:00 PM)100% (Jul 7, 6:00 AM)30.27 "Hg (Jul 7, 6:00 AM)
Low45 °F (Jul 12, 5:00 AM)34% (Jul 12, 12:00 PM)29.72 "Hg (Jul 8, 5:00 AM)
Average63 °F86%30.01 "Hg
* Reported Jul 7 3:00 AM — Jul 22 3:00 AM, Quispamsis, Weather by CustomWeather, © 2014

Note: Actual official high and low records may vary slightly from our data, if they occured in-between our weather recording intervals... More about our weather records

Advertising

Quispamsis weather history for previous 24 hours

 ConditionsComfort  
Time TempWeatherWind HumidityBarometerVisibility
3:00 AM
Jul 22
55 °FClear.No wind94%30.12 "Hg15 mi
2:00 AM55 °FClear.2 mph94%30.13 "Hg15 mi
1:00 AM57 °FPassing clouds.3 mph88%30.14 "Hg15 mi
12:00 AM59 °FPassing clouds.3 mph88%30.14 "Hg15 mi
11:00 PM
Jul 21
61 °FPassing clouds.2 mph83%30.15 "Hg15 mi
10:00 PM61 °FScattered clouds.3 mph83%30.14 "Hg15 mi
9:00 PM66 °FScattered clouds.5 mph60%30.13 "Hg15 mi
8:00 PM72 °FPassing clouds.6 mph50%30.13 "Hg15 mi
7:00 PM75 °FScattered clouds.5 mph44%30.14 "Hg15 mi
6:00 PM77 °FScattered clouds.6 mph39%30.14 "Hg15 mi
5:00 PM77 °FPartly sunny.8 mph42%30.15 "Hg15 mi
4:00 PM77 °FBroken clouds.10 mph42%30.16 "Hg15 mi
3:00 PM77 °FBroken clouds.8 mph42%30.17 "Hg15 mi
2:00 PM77 °FBroken clouds.2 mph44%30.17 "Hg15 mi
1:00 PM75 °FPartly sunny.6 mph57%30.19 "Hg15 mi
12:00 PM73 °FOvercast.3 mph65%30.20 "Hg15 mi
11:00 AM70 °FOvercast.2 mph64%30.20 "Hg15 mi
10:00 AM68 °FOvercast.No wind69%30.22 "Hg15 mi
9:00 AM66 °FOvercast.3 mph73%30.22 "Hg15 mi
8:00 AM64 °FOvercast.3 mph78%30.22 "Hg15 mi
7:00 AM63 °FOvercast.2 mph83%30.22 "Hg15 mi
6:00 AM63 °FOvercast.2 mph83%30.21 "Hg15 mi
5:00 AM63 °FOvercast.3 mph83%30.20 "Hg15 mi
4:00 AM64 °FOvercast.No wind73%30.20 "Hg15 mi
Weather by CustomWeather, © 2014

See weather overviewHow to use our weather pages